Theta_e
297 290 288 287 291 293 294 294 294 295 294 293 292 291 290 289 289 292 292 294 293 292 290 291 291 290 291 292 293 294 293 293 292 292 293 293 292 293 292 293 293 292 292 293 294 295 295 296 297 299 301 301 302 303 304 303 302 303 303 302 300 301 302 301 300 299 298 296 295 294 293 291 291 291 291 290 290 291 291 291 292 292 292 292 292 292
298 289 289 293 295 295 295 295 294 294 293 292 291 289 288 289 289 291 293 294 293 292 287 290 290 291 293 293 293 292 292 292 293 293 292 292 292 293 292 292 292 292 292 293 293 294 294 295 297 300 301 300 299 300 303 302 301 300 300 299 299 299 298 297 296 296 295 295 294 292 291 290 290 289 288 288 289 289 290 290 290 290 290 291 291 291
290 289 292 295 297 296 295 295 294 294 293 292 290 290 288 288 290 292 293 293 293 293 289 288 290 292 293 294 293 292 293 294 295 295 294 294 292 292 292 292 291 291 291 292 293 293 294 295 297 299 300 300 300 300 301 302 300 298 298 297 297 297 296 296 296 295 294 294 293 292 290 290 288 289 289 288 289 289 289 289 289 289 289 290 289 289
288 290 295 297 296 296 295 294 294 293 292 290 288 287 287 287 291 285 289 291 293 292 288 289 289 291 294 295 294 293 294 293 293 294 293 293 293 292 293 293 291 291 290 291 292 292 293 294 295 297 298 298 299 298 299 301 299 298 296 295 295 295 295 294 294 293 292 291 291 290 290 289 288 287 288 288 288 288 288 287 288 288 288 289 288 289
292 293 297 297 296 295 294 293 292 291 290 289 290 288 287 289 289 290 289 291 291 291 292 290 289 290 292 293 295 293 291 291 293 293 292 292 293 293 293 292 292 291 291 291 291 292 292 292 294 296 297 298 297 297 298 299 298 296 295 295 294 294 294 293 293 292 291 290 289 289 288 288 287 286 286 286 286 286 287 287 287 287 287 288 288 288
293 296 297 295 295 295 294 292 292 292 288 288 289 292 291 291 291 290 292 292 285 285 289 290 282 282 286 291 293 290 290 290 290 291 291 291 291 292 292 291 292 292 292 292 292 292 292 293 294 295 296 297 296 296 297 298 297 295 294 294 294 294 293 292 292 291 291 290 288 287 286 284 284 283 283 283 283 284 285 285 286 287 287 287 287 287
294 296 298 295 293 293 293 292 292 293 289 287 288 292 293 292 291 291 290 290 284 283 288 291 286 282 285 290 291 287 288 290 289 290 291 289 290 291 291 291 291 291 291 291 292 292 292 292 293 295 295 296 295 295 296 297 296 295 294 294 294 293 293 293 292 291 291 289 288 286 285 285 284 283 283 284 284 285 285 286 286 286 286 286 286 286
294 294 295 295 293 292 290 290 293 294 289 285 289 294 293 291 290 290 290 289 285 286 289 289 286 283 286 291 295 293 290 289 289 289 289 290 290 290 290 291 291 291 291 291 291 292 291 292 293 294 295 295 294 295 295 294 294 293 293 293 292 292 292 292 291 290 290 288 287 286 285 285 284 284 283 284 284 285 285 285 285 285 286 286 286 286
294 291 293 292 292 291 290 292 294 295 290 287 293 293 292 292 290 290 290 287 285 286 284 285 287 284 283 286 288 291 288 288 288 290 290 290 290 289 289 290 291 291 291 291 291 291 291 292 293 293 293 294 294 293 292 292 291 291 291 290 290 290 290 290 290 289 288 288 287 286 286 285 285 285 285 285 286 285 285 284 284 284 285 285 285 285
296 294 295 296 293 291 291 293 293 295 291 293 293 293 292 291 290 290 285 288 284 283 282 283 287 284 286 288 286 287 288 289 291 292 292 291 290 290 290 290 290 290 290 291 291 291 291 292 292 292 293 293 293 293 292 290 290 290 290 290 289 289 289 289 289 289 288 287 287 286 285 285 285 285 285 285 284 284 284 283 283 283 284 284 284 284
296 294 295 295 292 293 290 291 290 293 292 294 292 291 289 286 284 282 283 281 283 279 284 286 287 287 283 286 287 287 287 292 294 292 290 290 290 290 290 290 290 289 290 290 290 291 291 290 290 291 291 292 292 292 291 290 289 289 289 289 289 288 289 288 288 288 287 287 286 286 286 285 285 285 284 284 283 283 283 283 283 283 283 283 283 283
293 293 294 293 294 292 293 291 291 292 293 295 288 284 286 285 280 281 280 282 278 280 283 288 287 288 282 281 287 290 289 289 292 291 290 288 289 289 289 290 290 290 289 290 290 289 288 288 289 289 290 290 291 291 290 289 288 289 288 289 288 288 288 288 288 287 287 287 286 286 286 286 285 285 284 283 283 283 283 283 283 283 283 282 283 283
286 288 291 294 295 295 290 290 290 289 292 292 290 289 286 281 278 275 277 275 276 281 281 285 287 282 285 289 286 289 291 289 290 294 292 290 289 289 289 289 290 290 289 289 289 287 287 287 288 288 288 289 289 290 290 288 288 288 288 288 288 287 287 288 288 287 287 287 286 286 286 286 286 285 285 284 284 283 283 283 282 282 282 282 282 282
285 287 291 291 293 295 295 291 286 286 290 290 289 286 283 278 275 273 271 274 275 278 281 282 284 285 283 287 294 295 295 290 289 288 290 291 290 289 289 289 289 289 289 289 288 287 287 287 288 288 288 288 288 289 289 288 287 288 288 288 288 287 287 288 288 288 287 287 287 287 287 287 287 286 285 285 284 284 283 283 282 282 282 281 281 281
280 281 288 291 288 294 296 296 294 291 290 291 290 291 287 284 276 272 276 277 277 277 278 280 283 278 279 287 286 286 285 286 286 288 289 290 290 290 289 289 288 288 288 288 287 287 287 287 287 288 288 288 288 288 288 287 287 287 287 287 287 286 287 287 287 288 287 287 287 287 287 287 286 286 285 285 285 284 283 283 282 282 282 281 281 281
286 286 287 296 293 296 295 296 294 289 288 287 288 289 283 286 283 285 278 277 275 274 274 276 281 281 286 286 286 284 286 287 286 288 288 288 288 288 288 288 288 288 288 287 286 286 286 286 286 287 287 287 287 287 287 287 287 287 287 287 287 287 287 287 287 287 287 287 287 286 286 286 286 285 285 284 284 283 283 282 282 281 281 281 281 281
284 283 288 293 292 295 295 295 294 294 286 286 289 285 287 287 289 285 279 278 277 276 280 277 281 282 285 288 285 287 287 287 286 287 287 287 287 287 287 287 287 288 287 286 286 286 286 285 285 286 286 287 287 287 287 287 287 287 287 286 286 286 287 287 287 286 286 286 286 285 285 285 285 284 284 283 283 282 282 282 282 281 281 281 281 281
285 285 287 289 289 291 289 291 294 291 292 288 283 286 290 289 288 284 280 276 274 276 279 280 282 281 281 283 283 284 284 285 285 285 286 286 286 286 287 287 287 287 287 286 286 286 286 286 285 286 286 287 287 287 286 287 287 287 287 286 286 286 286 286 286 286 286 285 285 285 284 284 284 284 283 283 282 282 282 281 281 281 280 280 280 280
294 285 286 287 288 290 291 293 292 293 291 289 287 290 290 283 282 283 280 280 276 276 277 277 279 282 284 286 282 284 284 286 286 286 284 285 285 286 287 287 287 287 286 286 286 286 286 285 285 286 286 286 287 287 286 287 286 286 286 286 287 286 286 286 286 286 285 285 285 285 284 283 283 283 283 282 282 282 281 280 280 280 279 279 279 279
292 287 285 286 287 289 289 289 284 285 292 289 290 289 288 284 280 280 285 278 280 274 273 277 277 283 285 286 287 289 287 288 288 285 285 287 287 287 287 287 287 287 287 287 286 286 286 286 285 285 285 286 286 286 286 285 286 285 286 286 286 286 285 285 285 285 285 285 285 284 283 283 283 283 282 282 281 280 280 280 279 279 278 278 278 277
290 290 284 285 285 288 284 286 285 289 287 285 285 283 288 285 286 284 284 283 279 274 274 276 279 285 284 290 290 291 290 290 289 288 288 288 288 288 288 287 288 287 287 287 287 287 286 285 285 285 285 285 285 285 285 285 285 285 285 285 285 285 285 285 285 285 284 284 284 283 283 282 282 281 281 280 280 280 279 279 278 278 277 277 277 276
290 287 286 282 283 283 284 288 292 292 294 291 289 287 289 286 284 282 282 284 284 281 280 277 280 287 288 290 292 292 292 291 290 290 289 288 288 288 288 288 288 288 287 287 287 287 286 285 284 284 284 284 285 285 285 285 285 285 285 285 285 285 285 284 284 284 284 283 283 282 282 281 280 280 280 279 279 278 278 277 277 277 276 276 276 276
294 287 287 283 284 286 287 289 290 290 289 289 289 286 290 289 288 284 281 281 282 287 282 278 274 286 286 287 285 286 289 291 290 290 289 289 289 289 289 288 288 288 288 288 287 286 285 285 284 284 284 284 285 285 285 285 285 285 284 284 285 285 284 284 284 284 283 282 282 281 280 280 279 279 278 278 277 277 277 277 276 276 276 275 275 275
295 290 287 287 285 286 289 289 289 289 290 289 288 286 287 288 289 289 287 285 285 283 282 278 278 285 287 285 284 284 283 285 288 289 290 289 289 289 288 288 288 287 287 286 286 285 285 284 283 283 283 284 284 285 285 285 285 284 284 284 284 284 284 283 283 283 282 282 281 280 279 279 279 278 278 277 277 276 276 276 276 276 275 275 276 275
289 288 289 285 283 282 283 286 286 288 288 284 285 289 290 290 289 287 285 286 284 285 285 283 279 286 286 284 284 283 284 287 288 289 289 289 288 289 289 288 288 288 287 286 286 285 284 283 282 283 284 284 284 285 285 284 284 284 284 284 284 283 283 283 283 282 282 281 280 279 279 278 278 277 276 276 276 276 275 275 275 276 275 276 275 274
291 288 288 284 281 279 278 278 279 281 284 287 284 287 288 290 289 286 285 286 283 287 285 284 284 288 286 286 286 286 284 286 287 286 287 288 289 289 289 288 288 287 287 286 285 284 283 283 283 283 283 284 284 284 284 284 284 283 283 283 283 283 283 283 282 282 281 280 279 279 278 277 277 276 276 275 275 275 275 275 275 275 276 275 275 273
288 289 291 289 287 285 287 283 286 287 283 282 284 287 288 290 291 290 288 286 284 286 284 287 288 289 288 287 286 287 284 286 286 286 287 288 287 288 288 288 288 288 287 286 285 285 283 282 283 283 283 283 283 284 284 284 283 283 283 283 283 283 283 282 282 281 280 280 279 278 278 277 277 277 276 275 275 275 275 275 274 274 274 274 273 273
286 288 290 290 290 290 292 289 289 289 286 287 286 285 287 288 288 287 286 285 289 285 283 289 288 288 290 288 288 288 286 285 285 286 287 287 288 288 288 288 289 287 286 286 285 284 283 283 283 283 282 282 283 283 283 284 283 283 283 283 283 283 283 282 281 281 280 280 279 279 278 278 277 276 276 275 275 275 275 275 274 274 273 273 272 271
287 288 290 290 289 292 292 293 291 289 288 288 288 287 286 287 288 286 287 290 289 286 285 290 289 289 291 291 290 290 289 288 288 288 290 289 287 286 287 287 287 287 286 285 285 285 284 283 283 283 282 282 282 282 282 283 283 283 283 283 283 283 283 282 281 280 280 279 279 279 278 277 276 276 276 275 275 275 275 274 274 273 273 273 272 273
289 288 289 289 289 290 291 291 291 288 288 287 286 287 287 287 287 288 288 290 290 288 290 290 289 289 293 293 292 292 291 290 288 287 286 287 287 287 287 287 287 287 286 286 286 286 286 285 284 283 282 282 282 282 282 283 283 283 283 283 282 283 283 282 281 281 280 280 280 279 278 277 276 276 275 275 275 275 274 274 273 273 273 273 273 272
290 287 290 287 287 287 289 290 288 289 288 288 289 288 287 287 287 288 289 289 289 290 291 290 289 289 291 288 292 290 288 287 286 286 288 288 288 288 288 288 288 287 287 287 287 287 286 285 284 283 282 282 282 282 282 283 283 283 283 283 283 283 283 283 282 281 281 280 280 278 277 276 276 276 275 275 275 275 274 274 273 273 273 271 270 269
289 286 286 287 284 285 288 287 287 287 287 286 287 288 288 287 284 286 286 289 288 287 289 289 287 288 292 288 287 285 287 288 288 288 288 289 288 288 288 288 288 288 287 288 287 287 286 285 284 283 283 283 282 282 282 283 283 283 283 283 283 283 283 283 283 282 281 281 280 278 277 276 276 275 275 275 274 274 274 273 273 272 271 270 270 270
288 286 285 285 283 284 287 287 287 286 286 283 285 288 290 289 289 290 290 290 290 291 288 286 287 293 290 290 291 288 288 289 289 288 287 287 287 288 288 289 289 288 288 288 288 287 286 285 285 285 284 283 283 283 283 283 283 283 284 284 284 284 283 283 283 282 281 280 279 278 277 276 275 275 275 275 275 274 273 272 272 271 270 270 270 267
286 287 286 287 281 284 282 284 285 283 277 281 289 291 293 289 289 288 288 289 291 291 290 293 291 291 289 288 291 290 288 289 290 290 290 289 288 287 288 288 288 289 289 288 288 288 287 287 286 286 285 285 284 283 283 283 283 284 284 284 284 284 283 283 282 282 281 280 279 278 277 277 276 276 275 275 274 273 272 272 271 271 271 270 269 268
286 286 286 287 282 283 283 284 281 276 279 287 283 285 288 294 293 291 291 292 292 292 291 291 290 288 291 291 292 293 291 289 289 290 289 289 289 289 289 288 288 288 288 288 288 287 288 287 287 286 285 284 284 283 283 283 284 284 283 284 283 283 283 283 282 281 281 279 279 278 277 277 276 275 275 274 273 273 272 272 271 271 270 269 269 268
285 285 285 284 284 281 279 282 275 278 285 284 284 283 283 286 288 290 289 291 292 292 292 290 292 291 290 291 287 289 289 288 287 287 288 289 289 289 288 288 288 288 288 288 288 288 288 287 287 286 285 285 284 283 284 283 284 283 283 283 283 283 283 282 281 281 280 279 278 277 277 276 276 275 274 274 273 272 273 272 271 270 270 269 268 268
288 287 286 283 286 279 280 280 281 286 286 287 282 282 285 285 285 287 284 288 292 292 291 291 291 290 289 286 286 286 287 288 288 289 287 288 288 288 289 289 288 288 289 289 289 289 289 288 287 286 285 284 284 284 283 284 284 283 282 282 283 282 282 281 281 280 280 279 277 276 276 276 276 275 274 273 272 272 271 271 270 270 269 268 269 268
288 287 287 284 283 286 282 279 279 280 278 283 283 281 285 286 288 290 289 285 286 289 292 291 290 289 288 285 285 286 288 289 288 290 289 287 287 289 289 289 288 288 288 288 287 287 287 287 286 286 285 284 284 284 284 284 283 283 282 282 282 282 281 281 280 280 280 278 277 276 276 276 276 275 274 273 272 272 272 271 271 270 269 269 268 268
285 286 286 286 284 283 281 279 279 277 281 282 283 284 283 283 286 286 285 283 287 285 286 290 288 288 287 285 286 288 287 286 287 289 292 287 286 287 287 287 287 287 287 287 287 286 286 286 286 285 285 284 284 284 283 283 283 282 281 281 281 281 280 280 280 280 279 278 277 276 276 276 276 275 274 273 273 273 272 271 270 269 268 268 268 268
284 284 285 283 283 283 282 280 278 282 279 283 280 281 283 285 287 289 278 277 284 284 284 287 288 288 287 287 288 289 288 286 287 291 290 287 288 286 287 286 285 285 285 285 285 285 285 284 284 284 284 284 284 283 283 282 282 282 281 280 279 279 279 280 280 280 279 278 277 277 276 276 276 276 275 274 273 272 272 270 268 267 267 266 266 265
281 281 284 281 283 283 283 281 281 281 284 283 281 282 282 284 287 281 276 280 283 282 284 287 288 289 288 287 289 289 290 291 291 287 284 285 285 283 282 283 283 284 284 284 283 285 284 284 285 285 284 284 283 281 281 281 281 280 280 279 278 279 280 281 280 280 279 278 276 276 276 276 276 276 275 274 272 271 269 268 268 267 266 265 264 264
280 281 281 283 281 281 282 279 280 281 285 284 281 282 283 287 279 277 285 283 282 282 283 286 288 288 288 288 289 289 286 280 281 282 284 285 285 282 282 281 281 281 281 282 283 284 283 283 282 282 281 280 280 281 281 281 281 280 278 278 278 280 281 280 279 278 277 277 276 276 275 275 274 274 272 270 268 267 266 265 266 266 265 264 263 262
281 279 278 280 282 281 281 279 279 276 284 285 285 285 285 284 283 287 283 280 281 280 283 284 287 286 287 286 285 281 280 279 281 282 281 281 282 281 281 281 282 282 282 281 281 281 283 282 281 280 279 278 278 280 281 281 280 279 278 278 279 279 278 278 277 277 277 276 275 274 274 273 271 270 269 268 268 267 266 264 263 262 262 262 262 262
286 279 279 281 285 278 279 277 278 284 285 285 288 285 285 287 286 283 283 281 280 281 281 282 283 285 286 287 284 279 279 279 279 279 279 279 279 280 280 280 280 280 280 280 281 280 280 281 279 278 275 276 277 279 281 281 280 278 277 278 278 276 275 276 276 276 276 275 274 273 272 271 270 269 268 267 267 266 265 263 262 261 261 261 262 261
287 281 282 280 285 281 281 283 284 282 284 284 283 283 284 286 283 282 282 282 281 280 280 282 283 283 284 284 283 280 279 279 279 280 280 279 279 280 280 280 280 280 280 280 280 279 279 280 279 277 275 275 275 276 278 279 280 277 278 277 276 276 276 276 275 275 275 274 272 271 269 268 268 267 266 266 266 265 264 262 261 261 259 260 261 260
281 283 283 284 283 283 283 283 283 281 283 283 282 282 282 281 281 281 281 281 280 280 281 281 282 282 283 283 282 279 280 279 278 277 278 278 279 278 279 279 279 279 278 278 278 278 278 277 277 277 276 274 273 274 274 275 278 278 279 275 276 275 275 274 274 274 274 272 270 269 267 266 264 264 264 264 265 266 265 263 262 262 260 260 260 260
281 282 282 282 283 284 280 281 281 283 283 282 282 281 280 281 281 280 281 281 281 279 279 278 280 281 282 283 284 281 278 277 278 277 278 278 278 278 278 279 279 279 279 279 279 277 276 276 276 275 275 275 272 273 273 274 277 277 273 275 274 274 274 274 274 273 271 270 268 266 266 266 264 263 262 262 262 262 262 262 262 262 261 261 261 260
280 281 281 280 281 282 280 280 279 279 280 282 281 281 282 281 279 278 279 279 278 279 280 280 280 280 280 280 279 279 277 277 278 278 278 278 278 278 278 278 278 277 277 277 278 277 277 277 277 276 274 275 274 273 274 274 275 273 271 272 273 272 272 273 272 272 270 268 267 265 265 265 263 263 262 262 262 262 261 261 262 262 262 261 261 261
281 284 277 280 279 278 278 278 277 280 281 282 280 280 281 280 278 278 278 278 278 279 278 278 278 280 280 280 278 279 278 278 278 278 278 278 277 277 278 278 278 279 277 278 277 277 279 278 277 276 275 276 275 273 273 273 273 271 270 272 270 271 272 272 270 269 267 265 264 264 264 264 263 263 263 262 261 262 263 262 262 263 263 262 262 263
280 277 279 280 277 276 277 278 279 280 278 282 282 282 281 280 278 277 277 277 278 278 278 279 278 277 278 279 279 280 279 278 278 278 278 278 278 278 277 277 276 276 275 275 276 275 275 275 276 276 275 276 273 272 272 272 271 270 270 269 269 271 272 270 268 267 266 265 264 263 263 263 262 262 262 261 261 261 260 263 266 264 263 262 266 269
280 279 281 280 280 279 282 281 283 283 283 284 285 284 282 280 279 278 278 278 277 278 278 278 278 278 278 277 277 279 278 279 278 278 277 276 278 278 279 278 277 275 276 274 275 273 274 274 273 272 273 274 272 272 272 272 270 270 268 268 269 271 271 269 269 267 265 264 264 264 264 263 262 261 261 260 260 260 260 258 263 270 270 268 268 270
Wind_Speed
3 3 5 6 9 10 7 9 9 8 6 3 1 1 4 4 5 3 1 3 4 1 8 9 9 6 6 9 10 11 6 7 7 7 8 8 8 9 8 8 7 8 7 5 5 5 5 5 4 4 5 4 5 5 3 3 5 4 5 5 7 6 5 6 6 6 7 9 9 9 9 10 7 8 8 9 8 9 8 9 9 9 9 9 10 10
3 4 7 10 11 10 9 7 7 5 5 5 5 4 6 2 5 3 3 1 1 3 3 4 5 8 9 6 8 4 5 12 13 12 9 10 10 9 10 8 8 6 4 5 5 4 4 4 5 5 5 5 6 4 3 4 6 6 6 7 7 6 7 6 5 6 6 5 5 9 8 9 7 7 8 9 8 8 8 10 9 9 9 10 10 9
4 9 9 13 7 3 5 6 6 8 7 6 7 6 5 8 4 3 1 1 0 1 8 5 6 9 9 8 5 9 14 13 16 16 16 16 13 10 9 9 8 8 8 5 5 5 5 5 5 5 6 5 5 6 3 3 7 7 7 6 7 6 7 7 7 7 9 7 6 9 8 9 10 7 7 8 7 8 10 10 9 9 9 9 10 9
5 5 15 8 4 6 6 6 6 4 4 7 6 3 8 4 1 6 3 1 1 2 2 1 6 8 8 7 8 10 13 6 5 7 5 7 12 13 13 13 12 10 10 9 9 8 6 6 6 6 6 6 5 5 3 6 8 6 6 5 8 7 7 8 7 9 10 10 10 10 11 9 10 9 7 9 8 9 11 11 9 9 8 9 10 9
13 5 5 8 8 7 8 6 5 7 8 2 5 4 3 2 4 7 5 0 2 3 1 4 7 9 8 12 11 4 1 1 1 4 4 5 6 6 6 7 12 14 12 10 9 8 7 7 7 7 7 5 5 4 5 5 6 6 7 7 8 8 8 8 10 11 12 12 12 12 11 10 11 8 7 9 9 8 9 9 9 8 7 9 10 9
11 8 2 6 6 7 6 6 8 7 8 4 5 8 7 4 5 3 1 1 2 3 3 2 5 6 4 6 11 2 1 4 2 6 9 7 7 8 11 11 7 7 9 12 11 10 9 8 7 7 7 6 5 5 5 5 7 8 8 8 8 8 8 10 9 10 9 10 12 10 10 10 9 9 7 9 8 7 8 9 5 8 8 9 10 9
7 4 6 4 6 6 7 8 6 8 8 4 6 7 7 7 6 4 3 1 3 5 3 2 6 10 1 4 5 3 5 9 2 8 9 6 8 10 10 10 10 11 9 7 7 8 9 8 9 9 8 8 7 5 6 6 7 8 8 9 9 9 8 8 8 6 7 8 7 8 8 9 10 12 6 6 5 8 7 7 9 8 8 9 10 9
5 8 9 6 5 8 6 8 5 10 7 5 2 2 6 5 6 6 4 4 6 2 2 1 3 6 14 10 9 9 8 10 9 11 9 10 9 8 8 9 10 10 11 11 11 9 8 9 10 11 10 8 7 7 7 7 7 9 8 8 7 7 7 5 6 6 6 10 9 10 10 9 9 11 11 8 7 7 7 9 9 8 8 8 8 9
6 6 8 8 8 7 10 6 4 7 6 4 1 6 3 5 4 3 2 1 1 3 8 2 1 3 9 5 3 5 6 7 13 15 15 14 9 8 8 9 10 11 11 12 12 12 11 11 9 9 10 8 8 7 7 7 7 6 6 7 7 8 7 6 8 9 7 9 10 10 11 11 8 10 9 8 7 8 8 10 8 8 7 8 8 8
1 7 11 12 9 10 4 0 3 10 5 1 2 7 5 5 4 3 2 2 2 1 8 5 5 6 18 6 3 1 3 9 13 17 17 14 14 13 11 9 8 8 8 9 10 10 9 8 7 8 9 9 8 7 7 7 7 6 6 7 8 8 7 8 9 10 10 9 9 11 11 15 11 9 9 8 9 8 7 10 8 7 7 6 7 7
1 2 1 3 7 5 5 2 1 4 4 5 6 7 6 8 5 3 5 3 3 7 9 9 10 8 12 2 10 9 9 11 12 5 2 7 10 11 10 11 10 9 9 9 9 9 8 6 8 9 11 9 8 7 8 7 7 7 7 8 9 7 8 9 10 12 11 9 8 10 11 13 14 11 11 11 9 8 7 9 7 7 6 5 6 6
1 1 1 1 3 4 4 4 5 2 5 10 2 4 5 3 5 3 3 3 1 11 4 13 12 12 13 3 4 6 1 3 6 8 8 10 15 14 12 12 12 10 10 10 10 10 9 8 8 8 10 10 9 8 9 7 7 8 7 9 10 7 8 8 9 11 11 9 8 8 11 12 11 12 11 12 11 9 9 9 9 6 7 6 6 6
4 3 2 1 2 9 3 6 2 4 1 5 7 7 7 3 4 2 2 2 6 11 1 5 8 1 20 9 1 4 8 5 6 9 10 12 11 11 11 12 12 11 10 11 11 10 11 12 12 11 10 10 9 10 10 9 8 8 8 10 12 9 8 9 10 11 10 9 9 10 10 10 10 10 10 10 10 8 9 8 8 8 7 6 7 6
6 1 1 2 3 4 9 10 3 1 5 7 10 8 7 2 2 4 3 3 6 4 4 2 4 10 2 6 11 17 12 5 3 6 5 11 14 15 14 12 12 12 12 11 11 11 11 11 10 10 11 10 9 10 10 9 9 8 9 9 12 9 8 9 10 11 11 9 9 9 9 10 10 9 9 8 10 8 7 7 8 7 7 7 7 6
5 3 8 7 6 5 9 12 15 7 10 10 4 13 11 9 5 4 6 7 8 5 1 2 5 8 4 6 2 5 3 2 3 4 3 6 9 10 9 8 9 10 9 10 11 12 12 11 11 11 11 10 9 10 10 9 9 9 9 10 12 11 8 10 10 10 11 10 9 8 8 9 8 9 8 7 7 8 9 7 8 7 6 7 5 6
15 9 5 17 1 12 14 3 7 6 3 3 2 4 3 9 6 10 4 3 1 1 2 2 7 4 6 2 2 1 3 2 3 2 5 6 7 9 10 12 12 11 11 10 10 10 9 9 9 9 9 9 10 10 9 10 10 10 10 10 11 12 10 10 10 10 11 10 9 9 10 9 9 8 8 7 7 7 7 8 8 7 6 6 6 5
2 7 3 3 5 12 10 4 4 7 8 4 6 8 7 4 4 4 2 1 1 2 12 4 8 6 8 7 6 1 0 1 2 2 4 6 8 10 11 11 11 11 11 11 11 11 11 8 8 9 10 10 10 10 10 11 10 12 12 12 12 11 9 10 10 10 9 10 10 9 9 9 9 9 10 10 9 9 7 7 7 7 6 6 6 6
8 4 2 4 4 1 1 0 1 2 4 7 5 7 2 2 3 3 5 2 0 5 8 6 12 5 2 12 1 3 2 3 3 5 5 5 7 11 11 13 14 14 12 11 9 9 10 10 11 10 9 9 10 11 10 11 9 10 10 12 13 12 13 10 10 10 10 11 10 10 9 8 8 9 9 9 10 9 9 7 7 6 7 6 5 5
4 5 2 1 0 3 2 3 2 2 2 7 7 4 8 5 3 2 3 7 1 6 6 4 4 9 11 11 2 6 8 8 10 7 6 9 10 13 11 10 9 9 10 12 12 12 12 12 12 11 12 9 9 9 9 9 10 9 8 9 10 12 10 10 9 8 8 8 8 8 9 9 8 8 8 8 8 8 9 8 7 7 7 6 6 6
1 6 2 2 2 1 1 4 8 3 1 2 2 2 1 3 1 6 8 2 4 5 1 8 4 15 7 8 13 11 13 15 13 8 13 15 16 13 12 12 13 14 14 14 13 13 13 13 12 13 13 13 13 10 9 9 8 10 9 10 9 8 8 8 9 9 10 8 9 9 8 7 7 7 8 8 9 8 8 7 8 7 7 7 6 5
5 3 6 0 3 2 3 5 8 12 11 2 2 4 1 0 2 3 1 4 4 3 4 5 11 13 4 6 11 13 16 17 16 17 15 14 14 12 12 14 14 14 14 14 13 13 13 12 11 10 9 9 8 7 8 10 11 10 9 9 10 13 11 10 10 10 9 9 9 11 10 9 8 8 8 8 7 8 7 6 6 6 6 6 6 6
4 2 9 3 2 7 5 4 10 14 15 14 15 14 15 10 5 4 9 2 2 2 7 4 15 15 2 1 8 9 13 13 13 16 15 14 13 13 12 12 13 13 12 12 12 12 12 11 10 9 8 8 9 10 10 9 10 10 10 10 10 10 10 11 10 10 10 9 10 10 10 9 7 8 8 9 8 8 7 6 7 6 6 6 5 5
7 3 5 6 7 9 8 2 2 1 2 2 2 1 4 5 6 5 9 7 3 8 1 3 2 18 4 1 0 3 5 9 13 12 12 12 13 13 13 12 11 11 12 12 12 11 11 11 11 12 12 12 12 11 11 10 11 11 11 11 10 11 10 10 11 9 10 10 10 10 9 9 9 9 9 9 7 8 7 7 6 6 7 7 6 5
6 3 4 5 2 1 2 2 3 3 2 2 1 2 5 11 14 14 8 3 7 2 6 2 3 16 2 1 2 2 3 7 4 9 14 9 8 10 11 11 12 11 10 8 8 8 9 10 10 11 12 13 12 12 13 11 11 11 10 11 11 12 12 10 10 10 10 10 10 10 10 9 9 10 9 9 7 8 7 7 6 6 7 7 6 7
4 3 7 3 2 2 1 2 2 2 1 4 6 11 10 4 3 2 2 1 4 11 9 9 14 15 1 3 2 3 2 2 7 8 8 10 7 10 12 11 11 11 10 12 13 13 12 12 13 14 14 14 12 11 11 12 12 12 11 10 11 10 10 10 9 11 10 11 12 10 10 10 10 10 9 9 8 8 8 7 7 6 7 7 7 6
5 5 9 9 11 11 8 9 8 7 10 5 2 3 5 13 13 5 7 8 9 14 10 8 15 9 3 2 3 2 3 1 2 4 4 5 9 12 11 11 12 12 13 12 12 12 16 15 12 11 12 11 12 13 12 12 11 11 11 11 9 11 10 10 9 10 11 11 12 11 11 10 10 10 10 10 9 9 8 7 6 6 6 6 7 6
3 4 11 12 14 14 14 2 1 7 4 7 8 12 13 11 13 12 7 7 17 5 5 17 20 14 9 3 4 7 3 5 5 4 10 9 8 9 9 11 13 14 14 16 16 13 9 9 14 14 13 12 11 11 11 12 12 12 12 12 10 10 10 10 11 11 11 11 11 11 11 11 11 11 10 10 9 8 7 7 7 7 7 6 6 7
2 4 12 16 16 16 14 4 4 12 10 12 11 12 14 13 14 15 15 20 5 6 15 18 4 11 21 7 7 8 7 5 5 5 6 7 8 12 13 11 10 10 11 12 12 13 17 18 15 14 15 13 13 12 11 10 12 13 14 14 12 11 11 10 11 11 11 11 11 11 12 11 10 10 10 9 8 8 8 7 7 7 6 6 7 6
4 8 7 8 12 15 15 14 6 6 7 9 14 14 15 16 15 19 22 21 8 12 20 16 10 17 20 10 11 12 11 12 14 16 12 6 6 6 9 13 15 16 14 15 17 18 18 16 17 16 15 15 13 14 13 12 11 10 10 11 12 12 13 12 12 12 12 11 12 12 11 10 9 8 9 10 9 9 9 9 8 7 7 6 6 6
2 7 6 5 12 14 17 15 5 7 5 4 8 12 15 18 23 23 21 19 18 16 19 19 9 17 17 8 10 12 12 12 6 1 3 7 12 13 12 13 14 15 16 18 18 18 18 19 17 16 15 14 16 16 14 14 14 14 14 13 12 12 11 12 13 13 13 13 12 11 10 10 10 10 10 10 10 10 9 8 8 7 7 7 6 6
3 3 3 3 5 13 17 10 4 8 4 9 8 8 14 16 17 17 16 18 17 17 21 20 17 19 10 3 4 2 3 4 5 6 8 6 6 10 13 14 14 15 16 18 17 16 15 14 13 13 14 16 17 17 17 16 14 13 13 12 13 14 13 13 13 13 14 14 11 11 11 11 10 10 11 10 9 8 8 9 7 6 6 5 5 7
2 3 3 2 5 12 14 8 8 7 7 9 15 18 21 12 5 7 14 18 13 19 22 17 15 20 9 7 2 2 4 6 8 9 8 7 9 9 11 12 12 14 14 14 14 13 12 13 14 16 18 17 17 16 15 15 14 14 16 15 14 13 13 13 13 14 13 12 12 12 12 11 11 11 11 10 9 9 8 7 7 7 7 6 6 5
7 5 5 5 9 13 9 7 10 4 5 6 16 31 24 12 12 12 12 12 16 17 13 14 20 18 5 6 5 4 7 7 6 6 5 3 4 7 10 11 11 9 11 12 12 14 15 16 17 18 18 16 16 17 17 15 14 16 16 15 14 12 14 14 14 14 13 12 12 13 12 12 13 12 11 10 10 9 8 8 8 7 7 8 6 5
4 8 7 5 6 7 1 4 6 4 9 15 7 2 9 15 19 19 19 20 19 14 16 16 11 4 6 6 11 9 10 10 11 9 8 11 10 8 7 6 7 9 8 9 10 11 12 11 11 13 15 16 15 13 10 11 13 11 9 10 10 13 13 14 13 13 13 12 13 13 13 12 12 11 11 9 9 9 9 10 10 8 6 6 6 6
10 9 8 5 4 6 5 7 4 11 16 4 3 4 3 15 19 22 25 22 19 16 16 16 14 8 8 9 10 10 10 5 6 10 10 9 11 12 14 12 11 11 12 11 10 10 12 14 14 11 11 12 13 12 12 12 12 11 10 11 12 11 12 12 12 12 12 13 12 12 11 12 11 11 9 9 9 9 10 10 8 8 7 8 8 9
9 10 4 3 3 3 1 6 6 9 2 4 3 0 1 3 4 8 15 19 18 17 18 20 21 11 6 6 1 1 7 4 3 1 5 7 10 11 9 10 12 11 10 11 13 13 13 14 16 16 14 10 10 12 13 14 12 12 12 11 13 13 13 13 12 12 11 11 12 13 13 12 12 10 10 10 10 10 11 10 10 10 8 7 5 3
12 7 6 5 6 7 4 8 12 7 14 12 1 2 6 7 6 11 10 15 14 15 15 16 16 9 5 3 3 4 4 5 4 2 2 9 10 7 11 11 10 10 10 10 11 12 11 9 9 9 9 11 13 13 14 12 12 12 11 13 13 13 13 13 13 13 14 13 12 13 13 12 12 12 11 11 11 11 11 12 9 8 7 8 7 7
5 12 8 9 5 10 7 6 2 4 13 10 2 2 3 3 2 7 9 9 1 6 12 14 12 9 8 5 4 4 3 4 6 6 6 6 5 5 0 0 2 5 6 7 5 5 7 8 7 8 11 12 13 14 12 12 13 13 13 13 12 13 13 13 15 14 13 13 12 13 12 12 12 12 12 12 14 14 11 9 6 9 9 11 10 9
1 0 4 13 5 6 7 8 8 9 8 2 3 2 3 2 5 3 2 9 1 3 4 10 9 10 12 10 5 3 5 2 7 5 6 2 2 2 3 2 3 5 6 8 9 9 8 8 10 9 9 11 12 11 11 12 14 13 13 12 12 12 13 14 15 13 13 12 11 11 12 11 12 12 13 14 14 12 13 13 12 8 8 7 7 7
6 6 5 8 8 9 10 8 10 5 4 2 5 3 3 1 4 7 2 6 1 1 1 4 10 9 8 9 9 7 6 3 4 8 3 6 6 3 5 7 5 4 4 4 3 5 6 7 8 8 9 11 12 10 11 11 12 12 12 10 9 11 14 15 15 12 11 11 12 12 12 12 13 13 13 14 11 9 10 7 7 8 9 6 6 7
6 4 9 15 14 12 11 9 2 5 3 2 4 4 2 1 4 7 9 3 2 2 2 6 8 10 11 10 8 6 9 7 5 2 1 5 7 4 4 3 3 4 6 5 6 7 7 6 9 10 11 8 8 8 9 10 11 10 9 10 11 14 16 14 10 11 11 10 10 11 12 11 12 14 12 10 10 8 7 7 8 8 8 8 6 6
2 3 1 5 10 12 11 9 10 2 4 6 3 4 2 4 5 8 4 1 5 4 1 4 7 6 8 12 11 5 5 3 3 4 5 5 7 6 5 6 6 5 4 4 5 6 6 5 5 5 4 4 8 9 9 10 11 10 9 10 13 17 13 8 9 9 8 10 11 11 11 11 9 9 9 8 8 8 8 5 6 6 7 6 7 8
12 9 10 11 5 1 3 6 4 9 3 8 6 1 1 4 4 3 3 1 2 2 3 2 5 6 7 5 2 5 6 3 4 6 5 6 8 8 8 7 8 8 7 6 4 3 7 7 6 5 5 4 6 7 8 10 11 9 10 12 17 10 6 7 8 9 9 10 10 11 11 10 11 10 8 9 9 10 9 7 7 6 6 7 7 8
5 6 4 7 6 7 9 9 7 2 8 9 13 10 5 6 3 6 6 2 0 2 3 3 1 5 6 8 8 4 4 6 4 5 6 5 5 4 4 4 4 5 4 3 4 6 5 6 5 5 4 4 5 6 7 11 11 9 10 15 6 5 6 7 8 9 9 9 10 10 9 9 9 9 8 9 9 9 9 8 7 7 7 7 8 8
7 8 3 7 4 7 5 2 1 3 4 4 1 1 1 1 2 6 3 5 6 4 3 3 4 5 6 6 7 7 4 3 5 5 7 7 7 7 8 7 8 8 7 7 6 4 5 9 9 6 4 3 5 5 6 6 11 9 12 8 6 7 8 8 9 9 9 10 9 9 8 7 8 8 8 8 10 10 9 8 8 8 5 7 7 7
3 2 0 5 1 2 2 1 1 1 3 2 1 1 2 1 1 2 4 4 3 3 7 5 5 5 5 6 9 2 4 5 6 3 4 6 6 4 4 4 3 3 4 4 4 5 5 5 6 8 7 4 3 4 4 4 7 12 10 5 6 7 8 9 9 9 10 8 8 8 8 9 6 6 7 8 8 9 9 12 11 10 9 8 8 8
1 0 1 3 2 5 4 3 3 4 4 2 1 1 0 0 1 1 3 1 4 4 3 0 6 6 6 7 6 7 5 6 6 4 5 5 6 6 7 7 6 7 9 8 7 8 7 7 8 7 7 8 5 4 5 5 6 5 4 7 6 7 8 9 9 9 7 9 8 7 8 10 9 7 6 7 6 6 7 8 8 8 9 9 10 9
3 3 3 2 2 5 1 3 3 2 1 0 1 3 4 3 1 2 1 1 3 3 3 2 4 4 4 4 5 7 6 5 8 7 6 6 7 7 7 7 7 5 4 4 6 6 7 8 9 8 7 8 7 6 6 6 7 5 5 5 7 7 8 8 9 10 9 10 8 8 9 9 10 11 8 9 9 9 8 7 9 11 13 14 13 12
4 6 4 4 4 0 3 1 1 3 1 3 3 4 4 3 3 1 2 3 4 5 4 3 1 5 5 5 5 7 7 6 7 9 8 6 5 6 7 7 8 9 8 9 7 8 11 9 8 9 9 9 7 7 7 7 6 5 6 6 7 8 9 9 7 6 6 7 7 8 7 8 9 9 9 9 8 8 9 12 13 12 9 6 6 10
6 5 2 5 3 3 7 6 6 6 3 6 9 8 6 5 4 4 2 2 3 5 4 6 4 2 3 4 7 7 8 6 4 6 8 8 8 7 6 6 6 6 5 3 5 5 4 5 7 9 9 7 7 8 8 7 6 5 5 6 7 8 9 8 7 6 7 7 8 7 7 7 8 8 8 9 10 9 7 6 9 8 8 8 10 15
6 6 6 6 7 7 4 9 9 3 5 8 11 10 7 5 5 6 7 7 4 4 6 8 5 3 3 2 1 5 5 8 6 5 5 5 7 7 8 9 7 5 6 6 6 5 6 6 5 4 5 5 5 7 8 7 7 7 6 7 8 9 9 9 8 7 7 7 8 10 10 8 7 7 7 7 7 7 8 5 7 14 16 11 11 14
Wind_Direction
123 133 164 189 212 209 212 197 200 213 180 225 240 189 217 212 280 289 266 250 153 128 226 227 230 244 250 234 224 209 193 219 221 214 197 192 184 181 180 177 161 154 157 170 145 138 139 136 140 127 113 110 93 92 79 82 94 89 96 99 82 84 104 112 114 102 103 104 98 82 81 86 77 76 74 67 58 61 60 60 61 61 60 60 61 59
85 190 232 218 213 203 204 208 218 239 238 224 239 244 274 199 257 242 239 157 319 175 290 245 247 254 250 243 236 190 177 214 210 213 205 196 192 187 176 170 160 151 133 141 133 149 136 136 139 127 124 124 114 105 97 83 93 89 77 87 88 79 81 81 82 94 80 65 93 109 99 97 84 76 74 76 61 65 64 59 59 60 60 62 62 61
191 211 230 222 221 188 217 215 215 213 231 240 221 242 253 266 239 290 359 356 292 124 260 281 275 263 262 255 230 187 198 212 207 202 201 189 190 185 177 165 146 151 158 158 163 159 157 151 140 128 125 125 124 129 136 113 97 91 87 89 91 89 91 86 88 92 96 92 90 102 102 100 95 69 80 84 80 73 71 61 58 58 59 63 62 61
247 267 243 225 191 210 240 238 242 227 207 215 233 191 227 235 203 287 289 316 282 156 245 330 312 279 269 254 243 217 207 223 221 221 219 198 188 184 182 171 161 162 162 169 170 170 165 156 146 134 136 141 137 132 127 111 109 102 102 99 99 96 97 100 98 102 97 99 98 88 97 86 91 103 88 83 73 69 70 62 57 54 59 61 66 60
207 210 217 186 198 189 220 229 231 232 249 244 181 179 190 218 223 190 256 295 331 323 13 320 300 282 250 257 257 241 348 119 183 169 195 196 193 174 153 159 169 168 167 164 167 170 165 157 156 150 145 143 138 135 122 121 118 120 119 112 110 111 109 110 116 114 116 110 99 100 94 96 91 73 77 82 66 62 70 73 56 52 56 63 65 62
247 237 99 157 199 211 209 233 218 181 223 257 227 191 204 193 220 252 28 72 19 325 282 143 330 282 268 243 255 238 98 208 231 187 207 191 171 163 174 174 168 164 169 167 170 173 168 161 150 144 148 146 136 121 120 122 120 122 121 117 113 112 115 118 119 122 120 119 123 124 118 108 98 88 75 79 94 82 72 75 78 62 53 60 62 60
222 174 210 181 184 210 209 214 224 171 209 200 266 194 208 212 218 207 191 65 284 254 291 113 203 282 297 273 249 206 192 217 223 217 213 189 186 184 177 170 171 166 164 161 161 166 164 166 152 151 156 152 137 127 127 118 119 118 123 122 123 125 124 126 128 124 117 107 104 108 108 112 114 112 87 96 90 95 91 85 72 67 57 54 64 58
138 175 191 198 177 197 203 222 236 175 152 233 245 149 192 200 208 221 208 194 237 230 307 23 116 270 291 253 228 214 206 218 227 234 221 211 198 188 176 172 171 169 167 165 170 170 169 167 162 159 157 151 143 134 124 123 123 127 129 126 127 128 128 130 123 109 114 115 115 110 105 104 106 108 120 115 104 92 93 81 73 70 61 56 57 64
161 182 176 188 198 188 203 203 187 161 154 217 256 140 126 178 183 116 138 144 209 15 292 217 18 312 243 273 334 155 205 250 240 230 223 212 195 190 182 179 176 172 169 165 167 173 171 168 165 155 152 147 137 134 134 134 133 125 119 114 115 116 119 120 117 114 107 112 118 118 119 109 105 111 112 111 100 95 90 86 76 73 68 65 59 59
295 174 187 174 178 211 200 202 145 163 164 257 142 82 76 71 67 91 93 71 340 28 250 181 175 225 276 220 147 2 232 237 236 231 226 205 193 188 186 183 173 164 164 167 167 167 167 164 156 149 139 139 140 137 131 128 127 123 120 115 113 115 118 121 117 117 116 117 123 122 126 122 123 120 110 105 103 97 95 92 86 80 76 71 69 62
216 317 208 119 201 182 128 89 125 204 173 130 73 65 29 36 30 7 66 89 32 255 246 175 195 169 282 260 174 148 209 206 227 253 217 177 187 193 191 179 175 168 167 166 161 164 160 155 144 146 146 143 137 137 132 130 132 131 126 124 115 122 120 121 125 125 126 126 128 129 130 127 127 125 122 118 109 111 104 102 97 93 92 84 81 80
359 354 118 267 79 88 102 77 358 85 145 131 101 117 60 345 16 35 349 50 158 264 174 187 185 178 223 301 262 224 275 246 195 220 208 188 190 190 185 181 179 170 167 163 159 160 153 147 149 148 147 150 148 140 136 137 134 133 132 126 120 121 124 126 127 125 127 128 129 128 130 127 129 130 130 127 128 128 122 120 115 113 101 89 84 78
280 208 254 51 258 129 102 92 341 17 9 94 109 93 143 237 41 323 43 258 201 241 243 211 174 306 239 234 218 273 263 270 220 213 206 190 189 183 181 178 176 171 165 168 165 160 163 163 161 160 156 150 156 153 146 147 141 138 137 136 129 133 134 133 133 130 132 133 137 137 132 128 128 128 128 129 127 137 129 130 125 119 108 107 89 77
272 264 164 224 357 237 145 166 172 71 228 143 146 152 140 195 199 255 240 244 292 298 265 168 158 239 325 284 228 240 240 217 265 283 222 179 180 181 179 174 171 174 172 171 165 166 169 167 167 162 160 157 156 155 151 151 146 145 143 142 133 139 137 134 132 133 133 135 136 134 132 130 131 129 130 132 131 133 126 127 122 121 120 111 112 111
236 304 241 140 241 181 188 196 183 171 160 198 133 159 189 163 155 211 190 212 222 226 291 284 114 236 122 240 288 272 314 300 285 276 213 180 177 170 160 153 153 163 174 169 172 174 174 172 167 164 163 161 161 158 155 154 151 146 146 143 137 137 144 139 139 136 134 134 132 128 126 125 126 128 125 125 126 127 124 120 114 111 111 114 119 111
212 227 256 192 214 165 192 201 121 93 115 226 170 52 96 216 139 236 189 188 251 334 322 204 206 191 194 238 293 305 312 15 0 64 124 138 139 141 152 167 172 174 172 171 172 175 176 170 165 161 164 164 164 162 158 157 154 150 150 145 144 143 147 144 141 140 136 132 127 125 123 123 121 118 115 112 109 107 112 116 116 117 115 116 115 108
62 248 319 174 32 179 192 144 188 152 200 208 117 204 207 186 158 265 11 16 104 27 253 138 282 284 301 273 209 211 297 309 17 142 153 162 159 160 171 173 175 175 172 173 177 177 173 168 171 168 166 165 165 166 165 163 161 155 150 148 144 143 146 146 143 139 135 130 125 122 121 124 124 126 127 125 120 115 109 110 114 117 121 115 110 111
162 238 317 125 202 297 82 158 84 357 133 96 185 233 95 65 109 142 229 350 80 227 273 153 233 273 101 274 77 148 208 241 257 212 192 172 170 176 184 181 180 178 175 174 173 174 175 174 170 167 169 170 169 164 161 162 159 154 151 150 147 149 150 150 143 139 136 131 125 125 123 120 124 124 120 119 120 119 117 115 115 117 114 118 119 112
154 277 222 325 99 310 352 103 348 360 36 146 190 209 137 242 249 259 93 249 231 246 271 269 243 250 197 237 106 235 215 221 226 212 188 191 192 197 187 182 174 167 165 172 175 175 177 175 174 171 168 166 168 167 160 155 150 147 146 148 149 150 151 147 142 133 125 124 125 128 128 128 122 119 115 115 117 121 123 126 125 121 123 115 114 113
77 199 300 342 106 312 45 130 199 191 354 39 67 179 174 100 170 136 198 178 139 265 10 279 79 264 163 216 187 210 203 211 207 194 211 202 199 191 184 177 176 179 181 179 179 179 177 176 173 169 166 167 167 163 158 150 145 146 146 147 145 138 140 139 136 135 129 127 126 123 118 114 118 119 122 126 129 127 127 129 128 129 123 124 119 117
243 150 251 216 304 114 194 183 196 168 181 183 114 206 194 95 250 122 310 170 168 192 215 285 297 262 217 195 180 199 200 210 193 200 207 205 202 195 184 179 182 183 183 182 179 175 175 171 166 161 161 158 153 152 150 153 153 149 147 151 153 150 151 146 143 137 134 130 131 131 131 131 127 124 122 122 123 123 126 127 126 124 127 119 121 127
205 177 206 128 248 218 258 228 197 191 191 185 178 195 182 153 164 172 253 100 164 129 246 192 255 273 220 21 203 192 210 206 202 199 202 204 197 189 186 185 184 182 184 180 178 173 170 164 157 152 150 150 153 158 155 153 148 151 157 157 154 152 154 148 147 143 139 136 136 136 133 129 127 126 126 124 124 125 130 132 129 133 125 123 131 126
166 149 108 201 211 198 215 252 336 110 59 98 149 277 183 193 171 173 231 222 195 226 137 199 32 272 143 203 337 235 244 219 200 194 210 200 191 189 187 183 185 182 178 179 174 171 168 164 161 161 161 162 164 162 156 157 158 159 158 158 161 157 160 155 149 144 140 138 138 136 133 132 133 131 131 129 131 133 136 134 133 136 133 135 134 127
120 137 186 263 39 336 352 5 22 31 79 340 308 165 142 199 197 205 209 161 191 196 216 238 239 263 39 298 322 269 280 269 220 199 206 187 185 186 176 176 180 171 172 169 164 162 162 161 157 157 163 165 168 168 167 162 157 158 161 163 160 162 158 153 149 144 139 138 137 137 136 137 137 135 137 137 142 140 140 141 143 148 140 141 136 126
141 248 164 121 309 336 47 351 342 358 79 193 198 207 205 215 229 256 74 156 232 213 195 175 234 259 223 333 331 7 8 302 205 204 191 185 181 179 177 177 175 170 165 172 172 167 161 163 171 176 172 173 170 167 164 164 164 162 165 164 164 162 159 150 150 145 144 142 141 143 142 143 144 142 143 144 146 146 145 147 148 150 144 136 131 132
155 157 147 187 204 218 222 212 196 199 203 213 261 179 180 193 199 189 237 219 232 239 154 213 248 241 332 356 345 332 325 293 279 216 212 191 178 176 177 174 174 170 176 173 168 167 178 179 174 174 177 174 174 171 168 167 164 163 163 167 164 159 159 156 150 149 146 148 146 149 150 150 149 151 151 151 152 152 151 148 148 147 140 140 137 135
151 190 178 193 204 220 232 104 207 125 99 184 215 187 211 205 203 207 226 221 226 219 155 225 233 269 279 280 278 269 259 237 227 189 189 189 191 185 171 170 174 176 173 177 179 178 165 168 184 184 179 178 173 172 172 168 166 164 164 165 165 164 159 157 153 152 151 155 153 154 159 159 160 157 156 156 154 151 152 153 151 148 149 154 145 142
106 179 211 204 211 231 243 216 144 155 180 206 195 209 208 201 200 198 206 226 186 83 249 242 192 248 257 233 246 246 247 261 258 239 223 206 190 179 177 169 165 170 175 172 171 174 183 187 182 182 182 175 176 174 172 173 171 169 169 168 165 163 160 161 158 157 158 158 160 163 165 165 159 157 156 151 151 154 154 152 151 149 152 149 147 141
156 205 218 201 227 237 247 247 181 188 197 196 203 206 204 207 204 207 221 228 172 205 234 248 156 235 252 235 226 222 210 211 211 212 206 189 152 147 159 171 177 180 176 178 186 186 185 183 188 185 180 180 172 175 175 172 172 169 171 170 169 166 169 162 159 162 163 164 166 169 165 159 156 154 153 152 153 155 158 159 147 152 154 150 143 133
114 240 228 175 231 244 246 246 192 192 212 204 221 219 212 204 209 211 220 222 216 225 239 251 221 235 246 237 218 224 211 209 217 37 87 147 179 177 172 179 183 181 181 188 191 191 190 190 185 184 180 176 179 178 177 177 178 177 174 174 170 168 166 161 169 166 168 170 171 166 163 160 159 159 156 157 162 165 160 155 156 159 159 153 141 132
154 259 91 115 238 254 252 248 208 222 222 243 236 228 230 224 219 214 220 230 228 239 244 246 249 261 244 159 231 294 34 51 85 166 199 197 173 176 180 184 186 189 193 193 192 192 192 187 183 180 183 185 182 182 182 183 180 175 174 174 173 173 171 170 170 173 173 175 169 164 162 162 164 161 165 168 164 161 160 160 162 166 159 146 141 143
148 250 44 118 220 256 254 224 229 222 232 243 258 248 237 214 203 215 224 225 208 225 235 244 252 252 255 134 105 69 117 153 193 199 193 192 186 184 187 191 193 196 195 196 195 190 186 185 185 187 189 188 187 184 183 181 180 177 183 179 177 174 169 174 174 175 177 172 166 167 167 168 164 167 170 167 170 167 164 159 161 164 158 150 151 157
180 149 175 165 225 241 274 137 213 191 225 257 243 241 235 216 212 227 238 237 222 222 230 231 233 243 211 175 147 188 171 186 199 196 200 187 178 186 192 198 202 199 199 197 195 193 193 191 191 192 191 188 188 187 190 181 175 185 184 180 178 165 172 179 177 176 175 175 171 171 171 170 172 174 173 175 169 165 159 161 163 162 163 172 167 151
157 178 212 167 219 247 220 130 100 169 217 230 245 79 188 203 206 220 230 225 226 205 224 229 249 235 163 177 195 192 186 193 191 204 185 175 172 190 213 209 209 206 204 202 199 200 200 196 198 198 195 192 190 186 172 175 184 185 178 174 164 174 178 177 180 178 178 174 176 175 174 175 176 178 176 169 165 163 165 169 177 171 164 154 160 168
187 190 210 164 181 222 129 118 172 214 231 236 357 274 188 201 203 212 230 233 230 223 236 250 249 219 202 194 202 200 194 185 170 170 181 189 178 179 191 200 199 201 203 197 195 199 200 200 197 190 184 186 180 171 168 180 183 175 172 170 171 176 177 183 179 180 179 179 178 174 176 177 179 178 170 169 168 169 174 177 167 162 166 173 177 174
186 189 153 211 148 44 111 182 227 227 243 293 300 282 311 70 201 205 244 246 236 222 217 230 237 222 205 209 269 142 145 162 84 97 180 183 187 181 179 197 204 199 199 196 197 201 197 197 194 189 188 167 159 174 179 182 174 170 175 169 172 176 182 180 182 184 181 183 179 179 180 178 178 175 172 171 172 175 176 176 176 172 170 168 169 166
176 180 172 225 170 207 192 205 238 337 320 267 163 200 161 180 159 175 220 246 227 222 215 222 231 208 178 138 153 127 143 110 122 238 244 189 200 198 185 191 182 191 199 205 199 205 199 190 182 176 158 165 174 174 183 176 170 171 167 173 180 178 180 179 186 189 190 186 180 182 181 179 176 176 174 172 174 182 184 172 177 175 165 168 175 168
190 187 188 210 210 198 206 241 305 259 247 275 162 255 234 192 187 187 195 271 326 235 211 206 207 180 162 144 151 179 139 91 238 233 210 211 196 184 194 137 177 196 199 194 190 182 176 176 162 156 161 168 177 181 174 169 172 171 175 181 179 178 182 185 194 194 189 185 182 181 179 180 178 177 176 176 186 189 184 181 177 175 174 175 172 184
21 249 184 199 200 156 213 223 220 232 246 138 228 254 250 204 152 105 101 260 254 220 217 173 177 171 160 144 168 103 73 207 251 270 281 121 104 116 134 209 184 192 186 178 174 173 172 168 161 158 157 164 177 182 170 169 169 172 181 181 178 179 182 194 200 191 188 185 179 179 178 180 181 182 183 188 193 187 182 185 185 174 169 179 177 176
170 186 145 214 211 199 211 218 230 222 246 245 233 250 231 141 157 102 152 264 288 346 265 153 155 161 161 152 138 129 145 215 253 258 229 177 171 161 165 170 163 148 130 127 129 152 145 135 125 145 161 175 184 166 164 163 167 176 177 175 168 178 195 202 199 189 184 180 178 179 181 184 185 187 187 193 189 184 186 169 157 169 175 173 168 160
175 203 197 208 212 214 217 237 279 297 269 221 205 231 252 159 111 156 206 229 213 227 175 145 169 171 157 159 159 164 204 192 202 200 115 126 111 90 65 75 107 124 136 131 128 125 129 144 153 166 176 176 154 152 154 153 161 172 172 165 173 196 204 200 186 184 185 175 175 182 185 186 187 187 190 188 183 172 162 169 174 164 169 167 159 151
220 131 305 218 221 216 214 217 231 268 234 174 257 183 228 123 208 196 230 164 147 181 234 162 170 190 166 169 189 183 152 133 104 100 124 142 139 126 123 121 110 82 58 86 114 120 117 118 117 113 104 121 143 149 153 156 162 172 165 174 194 207 203 179 181 173 167 174 180 184 183 184 185 182 175 160 152 161 173 172 164 171 165 159 161 163
177 166 190 199 196 34 150 218 207 235 216 137 136 71 231 148 237 178 150 2 200 183 144 148 159 184 166 176 136 134 145 150 132 134 127 131 136 145 149 147 141 141 137 122 102 103 127 127 133 141 139 134 142 147 155 155 165 169 176 185 210 200 163 169 162 166 171 175 177 181 181 179 174 171 164 168 169 167 170 163 162 162 159 160 162 166
188 139 200 216 176 181 184 201 207 230 148 192 153 172 201 194 186 163 137 121 247 167 170 139 178 177 180 158 162 152 154 132 95 113 106 102 115 113 114 115 115 121 123 100 122 141 123 119 121 121 120 134 142 151 155 162 165 173 177 209 191 131 150 152 164 163 170 177 180 175 179 177 175 169 167 167 163 165 162 167 164 160 170 169 167 168
213 187 186 181 185 162 202 185 208 262 169 166 101 220 242 199 184 168 140 153 157 230 178 148 173 166 180 155 150 147 139 190 149 161 143 154 150 155 157 163 159 159 159 155 152 142 139 149 146 134 131 148 156 160 165 164 163 168 197 207 137 166 159 163 159 166 174 179 177 177 170 162 168 170 169 168 164 164 167 162 160 165 175 168 177 176
355 150 137 97 188 91 21 159 49 26 189 194 11 231 209 143 102 125 146 129 225 186 175 174 181 161 154 154 132 185 158 155 136 125 116 143 149 151 129 126 123 122 115 111 126 141 138 121 127 142 152 176 179 161 162 167 156 176 208 150 164 160 160 153 161 172 181 173 169 167 156 159 161 162 166 167 177 178 175 171 174 176 174 180 188 185
276 205 78 115 244 130 230 144 164 196 190 181 59 19 17 185 167 150 163 220 165 163 155 199 150 162 158 162 156 152 150 149 137 148 149 150 157 162 166 166 168 169 164 166 168 141 133 142 146 161 167 175 198 176 182 178 199 182 131 164 157 155 154 161 167 171 161 169 161 156 162 165 168 166 167 173 171 172 171 174 177 175 179 186 185 188
282 185 80 211 135 165 252 155 220 313 269 204 174 169 186 172 80 53 108 139 134 127 113 137 116 105 129 132 144 139 154 161 143 158 161 169 167 168 172 174 168 158 183 165 161 156 146 160 165 171 176 187 193 189 188 195 197 176 148 149 157 152 154 162 171 172 177 171 166 168 173 174 169 168 174 183 179 177 180 187 185 186 191 188 190 184
178 126 197 170 141 183 359 318 289 50 41 271 281 257 234 202 163 119 90 92 109 109 91 51 66 160 150 162 142 136 143 188 169 163 160 165 160 172 182 176 180 176 159 160 176 170 174 175 176 181 180 199 186 183 191 204 193 172 161 161 154 156 158 170 170 161 157 159 156 174 178 177 175 183 180 184 194 206 195 185 189 200 212 220 197 191
100 175 200 109 110 194 188 185 170 124 240 232 239 233 228 205 167 159 133 113 133 125 122 104 57 45 113 143 153 148 159 174 182 154 160 170 179 182 175 176 171 166 168 160 163 181 186 192 183 179 196 204 174 182 195 201 192 184 171 157 158 156 159 160 156 158 171 170 175 169 173 181 187 187 185 185 193 195 224 240 217 217 205 206 202 212
154 193 147 173 177 211 181 177 190 144 168 199 198 217 203 175 163 167 190 188 182 166 147 128 111 77 83 68 145 147 152 166 180 166 154 174 194 189 180 168 161 163 175 157 152 193 205 208 202 211 230 219 178 187 195 196 190 184 181 170 169 167 164 156 162 171 169 170 189 188 186 183 182 190 190 192 188 192 199 216 229 221 221 215 209 215